Weather in Balabanovo

Russia / Moscow Oblast     56°10′34″N   37°44′02″E
temp.,
°C
wind,
m/s
gust,
m/s
humid.,
%
clouds,
%
prec.,
mm/h
press.,
hPa
HPBL,
m
3 march, wed
wed300:00−3nnw61295100 0.4 1011953
03:00−5nw5129288 0.5 1014548
06:00−7nw5139388 0.0 1015483
09:00−5nw6138954 0.0 1015705
12:00−1wnw6108988 0.1 1014937
15:000wnw6108594 0.3 10131048
18:00−1w51187100 0.1 1011834
21:00−2w61291100 0.2 10091026
4 march, thu
thu400:00−1wsw61389100 0.0 1005774
03:00+1w61494100 0.2 1002987
06:00+1w81597100 0.9 10001109
09:00−1nw71193100 1.5 1000835
12:00−1nw5969100 0.1 10001004
15:00−1nw4674100 0.1 1001911
18:00−3nnw2587100 0.0 1001162
21:00−6n2493100 0.0 1002107
5 march, fri
fri500:00−9n129278 0.0 100321
03:00−10nnw129145 0.0 100421
06:00−10nw12940 0.0 100521
09:00−8w119311 0.0 100685
12:00−4wnw128767 0.1 1007439
15:00−4nw577883 1.3 1009929
18:00−7nw378766 0.1 1010179
21:00−10nw248938 0.1 101276
6 march, sat
sat600:00−11wnw23920 0.0 101341
03:00−10wnw259629 0.1 1015152
06:00−11nnw379685 0.1 1016264
09:00−12nnw478991 0.1 1017458
12:00−10nw468038 0.0 1017743
15:00−8wnw467366 0.0 10171075
18:00−10wsw358399 0.0 1016108
21:00−11sw4108773 0.0 1015235
7 march, sun
sun700:00−10sw5119081 0.0 1012386
03:00−8sw7149190 0.1 1007894
06:00−6sw81692100 1.1 10011113
09:00−5sw91890100 2.3 9961346
12:00−2wsw91688100 0.5 9941422
15:00−4wnw3965100 2.6 9931450
18:00−6nw71279100 1.7 9931164
21:00−8wsw4128398 1.8 995711